Regional Weather Roundup
Issued by NWS Charleston, SC

Current Version | Previous Version | Text Only | Print | Product List | Glossary Off
Versions: 1 2 3 4 5 6 7 8 9 10 11 12 13 14 15 16 17 18 19 20 21 22 23 24 25 26 27 28 29 30 31 32 33 34 35 36 37 38 39 40 41 42 43 44 45 46 47 48 49 50
000 ASUS42 KCHS 260528 RWRCHS REGIONAL WEATHER ROUNDUP NATIONAL WEATHER SERVICE CHARLESTON SC 100 AM EDT MON SEP 26 2016 NOTE: "FAIR" INDICATES FEW OR NO CLOUDS BELOW 12,000 FEET WITH NO SIGNIFICANT WEATHER AND/OR OBSTRUCTIONS TO VISIBILITY. NOT ALL STATIONS ARE QUALITY CONTROLLED. USE DATA WITH CAUTION... ESPECIALLY DEWPOINT OBSERVATIONS. SCZ027-030-031-034>040-042>050-260600- ...SOUTHEAST SOUTH CAROLINA... CITY SKY/WX TMP DP RH WIND PRES REMARKS N CHARLESTON PTCLDY 75 71 87 NE6 30.06F WATERFRONT PRK N/A 79 75 87 E10 30.04S MOUNT PLEASANT FAIR 77 73 88 CALM 30.07S JOHNS ISLAND FAIR 79 75 89 E9G16 30.07R PINOPOLIS N/A 75 73 94 E5 30.00F MONCKS CORNER FAIR 72 70 94 E3 30.08R SUMMERVILLE FAIR 73 73 100 CALM 30.08S BEAUFORT MCAS PTCLDY 76 73 91 NE6 30.06R BEAUFORT ARPT FAIR 77 73 88 NE5 30.05R HILTON HEAD IS CLOUDY 81 73 78 NE8 30.05S WALTERBORO CLEAR 73 N/A N/A E3 30.08S ALLENDALE FAIR 73 72 94 CALM 30.06S ...SOUTHERN MIDLANDS AND PEE DEE... CITY SKY/WX TMP DP RH WIND PRES REMARKS GEORGETOWN FAIR 75 70 83 E8 30.09S KINGSTREE FAIR 72 70 94 CALM 30.09S FOG ORANGEBURG CLEAR 73 71 93 CALM 30.09S BARNWELL NOT AVBL AIKEN FAIR 70 68 94 CALM 30.13R MANNING FAIR 72 66 83 CALM 30.09S HAZE COLUMBIA CLEAR 75 70 84 E5 30.08S SUMTER CLEAR 74 71 91 E5 30.08R FLORENCE NOT AVBL MYRTLE BEACH CLOUDY 79 64 61 E9G16 30.11S N MYRTLE BEACH MOCLDY 72 68 87 NE6 30.10S $$ GAZ063-065-086>088-099>101-113>116-118-119-134>141-150-260600- ...SOUTHEAST GEORGIA... CITY SKY/WX TMP DP RH WIND PRES REMARKS SAVANNAH ARPT PTCLDY 75 72 90 VRB3 30.05S HUNTER AAF CLOUDY 78 77 99 CALM 30.02S FORT STEWART CLOUDY 72 70 94 CALM 30.03S STATESBORO MOCLDY 72 71 98 CALM 30.07R SYLVANIA NOT AVBL CLAXTON FAIR 70 70 100 CALM 30.06S ...CSRA...CENTRAL AND FAR SOUTHEAST GEORGIA... CITY SKY/WX TMP DP RH WIND PRES REMARKS THOMSON CLEAR 77 71 82 SE3 30.13R AUGUSTA-BUSH CLEAR 68 67 96 S3 30.07S AUGUSTA-DANIEL CLEAR 75 66 73 CALM 30.09R SWAINSBORO FAIR 72 68 88 CALM 30.09R VIDALIA MOCLDY 72 72 100 CALM 30.07F EASTMAN FAIR 72 69 92 CALM 30.09F HAZLEHURST FAIR 74 74 98 S3 30.05F ALMA CLOUDY 72 70 93 CALM 30.05F WAYCROSS CLOUDY 75 75 99 CALM 30.05S JESUP MOCLDY 73 73 100 CALM 30.06R BAXLEY FAIR 72 72 100 NE3 30.05F BRUNSWICK CLOUDY 77 75 94 CALM 30.05R SAINT SIMONS CLOUDY 80 74 81 E7 30.03S $$ SCZ027-028-034-036>038-045-046-048>050-GAZ119-141-260600- ...LAKE AND SUPPLEMENTAL COASTAL OBSERVATIONS... STATION/POSITION TIME TEMP WIND PRES WAVE SWELL AIR SEA DIR/SP/G HT/PER HT/PER/DIR (UTC) (F) (DEG/KT/KT) (MB) (FT/S) (FT/S/D) WINYAH BAY 0445 78 90/ 10 1018.0S LAKE MURRAY 0450 76 120/ 3/ 10 1018.6R ACE BASIN NERRS 0445 75 CALM 1018.0S FORT PULASKI 0500 81 81 70/ 16/ 19 1017.7 SAPELO ISLAND 0500 79 80/ 4 1017.0 $$ ANZ835-935-AMZ111-154-330-350-352-354-370-450-454-472-260600- ...C-MAN AND BUOY OBSERVATIONS... STATION/POSITION TIME TEMP WIND PRES WAVE SWELL AIR SEA DIR/SP/G HT/PER HT/PER/DIR (UTC) (F) (DEG/KT/KT) (MB) (FT/S) (FT/S/D) BUOY 41004 0450 80 82 70/ 19/ 23 1017.0R 6/ 5 2/ 90/ 9 BUOY 41008 0450 82 82 80/ 14/ 16 1016.6R 4/ 5 2/120/ 9 FOLLY BEACH CMAN 0500 80 80/ 17/ 20 1018.0R CAPERS NEARSHORE 0508 80 81 80/ 17/ 21 1018.0R FRIPP NEARSHORE 0508 80 81 90/ 16/ 19 1017.3S STATION/POSITION TIME TEMP WIND PRES WAVE SWELL AIR SEA DIR/SP/G HT/PER HT/PER/DIR (UTC) (F) (DEG/KT/KT) (MB) (FT/S) (FT/S/D) 5E ST. MARYS GA 0501 83 N/A 4/ 5 2/110/11 FRYING PAN BUOY 0500 79 82 80/ 16/ 19 1018.3 BUOY 41025 0450 74 84 40/ 12/ 16 1019.6F 3/ 8 2/ 60/ 8 CAPE LOOKOUT NC 0500 74 40/ 15/ 17 1019.3F BUOY 41002 0450 81 83 60/ 14/ 16 1017.0F 4/ 5 2/ 80/10 BUOY 41010 NOT AVBL ST AUGUSTINE FL 0500 76 84 270/ 6/ 7 1017.0F $$

USA.gov is the U.S. government's official web portal to all federal, state and local government web resources and services.